[[{"header":{"parameterUnit":"m.s-1","parameterCategory":1,"la1":30.2991,"la2":30.254,"lo1":-89.0895,"lo2":-89.0444,"dy":0.0017,"dx":0.0017,"nx":28,"ny":28,"refTime":"2024-09-27T03:00:00:Z","depth":0,"parameterNumber":2,"parameterNumberName":"U-component_of_WINDS"},"data":[0,0,0,0,0,0,0,0,0,0,0,0,0,0,0,0,0,0,0,0,0,0,0,0,0,0,0,0,0,0,0,0,0,0,0,0,0,0,0,0,0,0,0,0,0,0,0,0,0,0,0,0,0,0,0,0,0,0,5.1599,5.1601,0,5.1749,5.175,5.1752,5.1728,5.1725,5.1722,5.172,5.1875,5.1881,5.1888,0,0,0,0,0,0,0,0,0,0,0,0,0,5.1296,5.1301,5.1599,5.1601,5.1603,5.1748,5.175,5.1753,5.1728,5.1725,5.1722,5.1719,5.1873,5.188,5.1888,0,0,0,0,0,0,0,0,0,0,0,0,0,5.1435,5.1303,5.1599,5.1608,5.1611,5.1748,5.1751,5.1753,5.1729,5.1725,5.1721,5.1717,5.187,5.188,5.1889,5.2028,0,0,5.1919,5.1924,0,0,0,0,0,0,0,0,5.1427,5.1446,5.1605,5.1608,5.1611,5.1715,5.17,5.1845,5.173,5.1684,5.172,5.1715,5.1825,5.1838,5.1875,5.2035,5.2041,5.192,5.1926,5.193,5.1933,0,0,0,0,0,0,0,5.1417,5.1439,5.1658,5.1607,5.1611,5.1606,5.1621,5.1728,5.1775,5.1688,5.1686,5.1704,5.1826,5.1866,5.1878,5.2044,5.192,5.1929,5.1935,5.1939,5.2326,5.2331,0,0,0,0,0,0,5.1405,5.1431,5.1654,5.1663,5.1507,5.1615,5.1632,5.1686,5.1773,5.1783,5.1707,5.1702,5.1851,5.1867,5.1884,5.2053,5.193,5.1939,5.1945,5.2322,5.2327,5.2332,0,0,0,0,0,0,5.1398,5.1425,5.1648,5.1547,5.1575,5.1624,5.1685,5.1691,5.173,5.1788,5.1797,5.1739,5.1848,5.187,5.1992,5.2058,5.1944,5.1953,5.2317,5.2324,5.233,5.2391,0,0,0,0,0,0,5.139,5.1422,5.1475,5.1548,5.158,5.1753,5.1689,5.1697,5.1747,5.1742,5.182,5.1829,5.1847,5.1978,5.2002,5.2069,5.196,5.2311,5.232,5.2328,5.2383,5.2398,5.2412,0,0,0,0,0,5.1379,5.1486,5.1477,5.1504,5.1647,5.1757,5.1775,5.1793,5.1752,5.1806,5.1843,5.1827,5.2046,5.1991,5.2018,5.2089,5.2307,5.2317,5.2327,5.2377,5.2395,5.2411,0,0,0,0,0,0,5.1419,5.1496,5.1487,5.1621,5.1683,5.1752,5.182,5.1812,5.1887,5.1879,5.1898,5.1916,5.204,5.2077,5.2013,5.2228,5.2171,5.2187,5.22,5.2218,5.2232,5.2221,5.1969,0,0,0,0,0,5.1443,5.1526,5.1588,5.17,5.1732,5.1771,5.1819,5.1828,5.1893,5.1919,5.1965,5.2029,5.2113,5.2167,5.2247,5.2388,5.2406,5.245,5.2465,5.2476,5.249,5.2569,5.259,5.2365,5.2365,5.2365,0,0,5.1494,5.1547,5.1597,5.171,5.1758,5.1845,5.1793,5.1885,5.195,5.1933,5.2051,5.2088,5.2161,5.2293,5.2354,5.2327,5.2556,5.2489,5.2498,5.2505,5.2581,5.2603,5.2622,5.2372,5.2371,5.2369,0,0,5.1632,5.1679,5.1778,5.1829,5.1903,5.1928,5.1952,5.2024,5.2047,5.2166,5.2156,5.2233,5.2376,5.2429,5.2475,5.2634,5.2623,5.266,5.2735,5.2812,5.283,5.2846,5.2904,5.2924,5.2673,5.2674,5.2674,0,5.1687,5.1815,5.1831,5.1925,5.1976,5.1964,5.2066,5.2114,5.2211,5.2246,5.2215,5.2395,5.2443,5.2589,5.2628,5.2665,5.2694,5.2651,5.2826,5.2842,5.2857,5.2913,5.2935,5.2678,5.2677,5.2677,5.2676,0,5.1879,5.1968,5.204,5.2134,5.2192,5.229,5.2322,5.2379,5.2383,5.2412,5.2534,5.2592,5.2684,5.2719,5.2723,5.2866,5.2848,5.2821,5.2765,5.2882,5.2935,5.2957,5.2684,5.2682,5.2681,5.268,0,0,5.2046,5.2148,5.2174,5.2217,5.2299,5.2369,5.2467,5.2556,5.2606,5.2674,5.2757,5.2879,5.2855,5.2907,5.2918,5.2985,5.3109,5.295,5.2952,5.2979,5.3272,5.3292,5.3317,5.3102,5.3106,5.3109,5.3267,0,5.2192,5.2364,5.2382,5.2536,5.262,5.261,5.2696,5.2756,5.2786,5.2862,5.2896,5.2983,5.2944,5.2976,5.3042,5.308,5.3169,5.3069,5.3181,5.3185,5.3164,5.3344,5.3366,5.3511,5.3287,5.3291,5.3293,0,5.2386,5.2459,5.2622,5.2693,5.2729,5.2805,5.289,5.2962,5.3031,5.3048,5.3107,5.3109,5.3211,5.315,5.3292,5.3224,5.3271,5.3297,5.3303,5.3315,5.3247,5.3362,5.3558,5.358,5.3326,5.3323,5.3321,0,5.2493,5.2632,5.2748,5.2785,5.2871,5.2925,5.2963,5.3028,5.3081,5.3156,5.3191,5.3276,5.3323,5.339,5.3415,5.3368,5.3557,5.3498,5.3575,5.3575,5.3616,5.3613,5.3823,5.3645,5.3644,5.3644,5.3643,0,5.2655,5.2755,5.2797,5.2868,5.2981,5.3001,5.3112,5.3148,5.3206,5.3285,5.3282,5.3357,5.3385,5.3465,5.3485,5.3601,5.3622,5.364,5.3644,5.3641,5.3639,5.3672,5.3663,5.365,5.3648,5.3647,5.3646,0,5.2794,5.2826,5.2952,5.3023,5.3043,5.3123,5.3185,5.3254,5.3283,5.3384,5.3408,5.3455,5.3549,5.358,5.3694,5.3708,5.3843,5.3838,5.3819,5.3821,5.3897,5.389,5.4137,5.4171,5.3969,5.397,5.3972,0,5.2896,5.2973,5.3052,5.3105,5.3145,5.323,5.3284,5.3308,5.3365,5.3449,5.3509,5.3602,5.3677,5.3828,5.3872,5.396,5.3958,5.4038,5.3971,5.3965,5.3961,5.3956,5.3965,5.4051,5.4053,5.4055,5.4056,0,5.3074,5.3086,5.3164,5.3249,5.3314,5.3382,5.3448,5.3491,5.3524,5.3589,5.3684,5.3743,5.3859,5.3952,5.4041,5.4082,5.4076,5.4077,5.41,5.4098,5.4084,5.4094,5.3855,5.4072,5.407,5.4069,5.4068,5.4067,5.3198,5.3267,5.3334,5.3422,5.3474,5.3535,5.3605,5.3643,5.3723,5.3818,5.3827,5.3931,5.3999,5.4118,5.4163,5.4245,5.4223,5.4256,5.4264,5.4272,5.4279,5.407,5.4262,5.4261,5.4261,5.4261,5.426,0,5.3377,5.342,5.3501,5.3593,5.3662,5.3649,5.3722,5.3781,5.3872,5.3936,5.401,5.4121,5.4211,5.4263,5.4354,5.441,5.4409,5.4433,5.4429,5.4439,5.4293,5.4265,5.4432,5.4432,5.4432,5.4432,5.4432,5.4432,5.3479,5.3594,5.3615,5.3757,5.3799,5.39,5.3943,5.4,5.4051,5.4174,5.4249,5.4282,5.4342,5.4437,5.452,5.4533,5.4567,5.4593,5.4604,5.4467,5.4449,5.4433,5.4406,5.46,5.46,5.4744,5.4745,5.4746]},{"header":{"parameterUnit":"m.s-1","parameterCategory":1,"la1":30.2991,"la2":30.254,"lo1":-89.0895,"lo2":-89.0444,"dy":0.0017,"dx":0.0017,"nx":28,"ny":28,"refTime":"2024-09-27T03:00:00:Z","depth":0,"parameterNumber":3,"parameterNumberName":"V-component_of_WINDS"},"data":[0,0,0,0,0,0,0,0,0,0,0,0,0,0,0,0,0,0,0,0,0,0,0,0,0,0,0,0,0,0,0,0,0,0,0,0,0,0,0,0,0,0,0,0,0,0,0,0,0,0,0,0,0,0,0,0,0,0,-0.491,-0.491,0,-0.4916,-0.4916,-0.4916,-0.4898,-0.4897,-0.4897,-0.4896,-0.4904,-0.4905,-0.4905,0,0,0,0,0,0,0,0,0,0,0,0,0,-0.4884,-0.4884,-0.491,-0.491,-0.491,-0.4916,-0.4916,-0.4916,-0.4898,-0.4897,-0.4897,-0.4896,-0.4904,-0.4905,-0.4905,0,0,0,0,0,0,0,0,0,0,0,0,0,-0.4893,-0.4885,-0.491,-0.4901,-0.4901,-0.4916,-0.4916,-0.4916,-0.4898,-0.4897,-0.4896,-0.4896,-0.4903,-0.4904,-0.4906,-0.4929,0,0,-0.4909,-0.4909,0,0,0,0,0,0,0,0,-0.4893,-0.4894,-0.4903,-0.4902,-0.4901,-0.4905,-0.491,-0.4921,-0.4898,-0.4899,-0.4896,-0.4895,-0.4905,-0.4906,-0.4909,-0.493,-0.493,-0.4909,-0.491,-0.491,-0.491,0,0,0,0,0,0,0,-0.4892,-0.4894,-0.4912,-0.4903,-0.4902,-0.4898,-0.4899,-0.4912,-0.4907,-0.4899,-0.4898,-0.4899,-0.4905,-0.4908,-0.4909,-0.493,-0.4909,-0.491,-0.4911,-0.4911,-0.4973,-0.4973,0,0,0,0,0,0,-0.4892,-0.4893,-0.4912,-0.4912,-0.4895,-0.4899,-0.49,-0.4905,-0.4907,-0.4906,-0.4899,-0.4898,-0.4907,-0.4908,-0.4909,-0.4939,-0.491,-0.4911,-0.4912,-0.4972,-0.4973,-0.4974,0,0,0,0,0,0,-0.4892,-0.4894,-0.4912,-0.4903,-0.4905,-0.4901,-0.4907,-0.4905,-0.4909,-0.4907,-0.4906,-0.4904,-0.4906,-0.4908,-0.4925,-0.4939,-0.4912,-0.4913,-0.497,-0.4972,-0.4973,-0.4996,0,0,0,0,0,0,-0.4891,-0.4894,-0.4902,-0.4903,-0.4905,-0.4927,-0.4907,-0.4906,-0.4911,-0.4909,-0.4911,-0.491,-0.4905,-0.4923,-0.4926,-0.494,-0.4914,-0.4969,-0.4971,-0.4973,-0.4994,-0.4998,-0.5002,0,0,0,0,0,-0.489,-0.4909,-0.4903,-0.4905,-0.4915,-0.4927,-0.4929,-0.4922,-0.4912,-0.4921,-0.492,-0.491,-0.4937,-0.4925,-0.4928,-0.4942,-0.4968,-0.4971,-0.4973,-0.4993,-0.4998,-0.5002,0,0,0,0,0,0,-0.491,-0.4908,-0.4902,-0.4921,-0.4925,-0.4924,-0.4935,-0.4928,-0.4934,-0.4932,-0.4924,-0.4925,-0.4944,-0.4945,-0.4932,-0.4966,-0.4951,-0.4954,-0.4965,-0.497,-0.4973,-0.4973,-0.4914,0,0,0,0,0,-0.4917,-0.4926,-0.4924,-0.4941,-0.4943,-0.4939,-0.4944,-0.4939,-0.4942,-0.4944,-0.4944,-0.4948,-0.4957,-0.4963,-0.4972,-0.4994,-0.4995,-0.5006,-0.5009,-0.5013,-0.5015,-0.5029,-0.5034,-0.4981,-0.4981,-0.4981,0,0,-0.493,-0.4931,-0.4937,-0.4945,-0.4947,-0.4958,-0.494,-0.4952,-0.496,-0.4945,-0.4962,-0.4962,-0.4966,-0.4987,-0.4996,-0.4988,-0.503,-0.5015,-0.5018,-0.5019,-0.5032,-0.5037,-0.5041,-0.4982,-0.4982,-0.4982,0,0,-0.4961,-0.4961,-0.4976,-0.4979,-0.4982,-0.4979,-0.4983,-0.4984,-0.4984,-0.5,-0.499,-0.5,-0.5015,-0.5019,-0.5023,-0.5057,-0.5049,-0.506,-0.5079,-0.5093,-0.5097,-0.5101,-0.5114,-0.5118,-0.5062,-0.5062,-0.5062,0,-0.4977,-0.4992,-0.4985,-0.4997,-0.5002,-0.4989,-0.5005,-0.5008,-0.5014,-0.5018,-0.5009,-0.503,-0.5031,-0.5053,-0.5061,-0.5065,-0.507,-0.5059,-0.5097,-0.5101,-0.5104,-0.5116,-0.5121,-0.5064,-0.5064,-0.5063,-0.5063,0,-0.5013,-0.5024,-0.5036,-0.5042,-0.5048,-0.5062,-0.5057,-0.5064,-0.5059,-0.5058,-0.5075,-0.5077,-0.5086,-0.5091,-0.5086,-0.5113,-0.5108,-0.5098,-0.5082,-0.511,-0.5122,-0.5127,-0.5066,-0.5065,-0.5065,-0.5064,0,0,-0.5056,-0.5059,-0.5063,-0.5066,-0.507,-0.5078,-0.5092,-0.5101,-0.5108,-0.5113,-0.5125,-0.5139,-0.5131,-0.5135,-0.5131,-0.5142,-0.517,-0.5131,-0.5131,-0.514,-0.5202,-0.521,-0.5215,-0.5165,-0.5166,-0.5167,-0.5202,0,-0.5087,-0.511,-0.5105,-0.5129,-0.5139,-0.5128,-0.514,-0.5144,-0.5144,-0.5153,-0.5153,-0.5163,-0.5151,-0.5154,-0.5164,-0.5165,-0.5183,-0.5162,-0.5178,-0.5178,-0.5178,-0.5221,-0.5229,-0.5262,-0.5206,-0.5207,-0.5207,0,-0.5126,-0.5132,-0.5157,-0.516,-0.5164,-0.5175,-0.5184,-0.5193,-0.5197,-0.5196,-0.5202,-0.5196,-0.5211,-0.5195,-0.5216,-0.5202,-0.5209,-0.521,-0.5211,-0.5213,-0.5195,-0.5225,-0.5272,-0.5278,-0.5214,-0.5214,-0.5213,0,-0.5156,-0.5171,-0.5188,-0.5191,-0.5194,-0.5203,-0.5205,-0.5209,-0.5215,-0.5222,-0.5227,-0.5236,-0.5241,-0.5249,-0.5246,-0.5234,-0.5269,-0.5252,-0.5269,-0.5269,-0.5277,-0.5277,-0.5327,-0.528,-0.528,-0.528,-0.5279,0,-0.5192,-0.5207,-0.5202,-0.5213,-0.5231,-0.5224,-0.5243,-0.5243,-0.5247,-0.5258,-0.5249,-0.526,-0.5255,-0.5266,-0.5264,-0.5283,-0.5285,-0.5285,-0.5285,-0.5287,-0.5287,-0.5291,-0.5289,-0.5281,-0.5281,-0.528,-0.528,0,-0.5228,-0.5225,-0.5243,-0.5245,-0.5246,-0.5259,-0.5261,-0.5272,-0.5271,-0.5286,-0.5289,-0.5287,-0.53,-0.5297,-0.5311,-0.531,-0.5334,-0.533,-0.5332,-0.5332,-0.535,-0.5348,-0.5405,-0.5413,-0.5359,-0.536,-0.536,0,-0.5252,-0.5264,-0.5267,-0.5274,-0.5276,-0.5287,-0.5294,-0.5288,-0.5296,-0.5303,-0.5313,-0.5324,-0.5334,-0.5355,-0.5356,-0.5367,-0.5363,-0.5383,-0.5365,-0.5367,-0.5365,-0.5365,-0.5367,-0.5386,-0.5387,-0.5387,-0.5388,0,-0.5294,-0.5292,-0.5301,-0.531,-0.5318,-0.5325,-0.5331,-0.5337,-0.5333,-0.5341,-0.5354,-0.5361,-0.5376,-0.5388,-0.5399,-0.5401,-0.5395,-0.5393,-0.5398,-0.5401,-0.5402,-0.5403,-0.5343,-0.5392,-0.5392,-0.5391,-0.5391,-0.5391,-0.5325,-0.5336,-0.534,-0.5351,-0.5355,-0.5362,-0.5372,-0.5372,-0.5383,-0.5394,-0.539,-0.5405,-0.5411,-0.5424,-0.5429,-0.5441,-0.5434,-0.5441,-0.5443,-0.5445,-0.5447,-0.5399,-0.5443,-0.5443,-0.5443,-0.5442,-0.5442,0,-0.5368,-0.5371,-0.5381,-0.539,-0.5399,-0.5391,-0.5397,-0.5406,-0.5419,-0.5424,-0.5434,-0.5449,-0.5462,-0.5464,-0.5476,-0.5485,-0.5483,-0.5489,-0.5489,-0.549,-0.5452,-0.5447,-0.5491,-0.5491,-0.5491,-0.5491,-0.5491,-0.5491,-0.5392,-0.541,-0.5409,-0.5429,-0.5432,-0.5446,-0.5451,-0.5457,-0.5462,-0.5479,-0.5489,-0.549,-0.5495,-0.5507,-0.5519,-0.5519,-0.5525,-0.5532,-0.5532,-0.5497,-0.5492,-0.5487,-0.5483,-0.5533,-0.5533,-0.5568,-0.5569,-0.5569]}]]